Regional Weather Roundup
Issued by NWS

Home | Current Version | Previous Version | Graphics & Text | Print | Product List | Glossary On
Versions: 1 2 3 4 5 6 7 8 9 10 11 12 13 14 15 16 17 18 19 20 21 22 23 24 25 26 27
000
ASUS45 KBOU 270007
RWRCO

WEATHER ROUNDUP FOR COLORADO
NATIONAL WEATHER SERVICE DENVER/BOULDER CO
600 PM MDT MON JUN 26 2017

NOTE: "FAIR" INDICATES FEW OR NO CLOUDS BELOW 12000 FEET WITH NO
SIGNIFICANT WEATHER AND/OR OBSTRUCTIONS TO VISIBILITY.

COZ001>005-013-030-031-270100-
...NORTHWEST COLORADO...

CITY           SKY/WX    TMP DP  RH WIND       PRES   REMARKS
CRAIG          FAIR      89  21   8 W6        30.12F
HAYDEN         FAIR      84  27  12 W8        30.16F
MEEKER         FAIR      87  30  13 S8        30.13F
RABBIT EARS PA FAIR      66  25  20 NW6       30.51S
STEAMBOAT SPGS FAIR      82  29  14 CALM      30.19F
WALDEN         FAIR      75  27  16 E6        30.30F
$$

COZ006>008-011-270100-
...WEST CENTRAL VALLEYS...

CITY           SKY/WX    TMP DP  RH WIND       PRES   REMARKS
GRAND JUNCTION FAIR      97  19   6 N13G18    29.97F
MONTROSE       FAIR      90  25   9 N7        30.07F
EAGLE          NOT AVBL
RIFLE          FAIR      88  25  10 N12G22    30.06F
DELTA          FAIR     100  22   6 NW8       30.01F
NUCLA          FAIR      91  23   8 S9        30.15F
$$

COZ017>023-064>068-270100-
...SOUTHWEST COLORADO...

CITY           SKY/WX    TMP DP  RH WIND       PRES   REMARKS
DURANGO        FAIR      81  34  18 N6        30.21F
CORTEZ         FAIR      91  24   9 W10       30.12F
PAGOSA SPRINGS FAIR      78  21  12 CALM      30.31F
TELLURIDE      FAIR      73  30  20 W12G31    30.43R
WOLF CREEK PAS CLOUDY    54  27  35 S17G29    30.67S
$$

COZ009-010-012-014-032>034-037-058>063-270100-
...CENTRAL COLORADO...

CITY           SKY/WX    TMP DP  RH WIND       PRES   REMARKS
ASPEN          FAIR      78  24  13 W5        30.24F
BUENA VISTA    FAIR      80  21  11 S18G26    30.24F
COPPER MTN     FAIR      64  18  16 NW18G28   30.62F
BERTHOUD PASS  PTSUNNY   50  36  57 SE16G22   30.66F
COTTONWOOD PAS FAIR      77  10   8 SE12      30.41F
GUNNISON       FAIR      79  34  19 N13       30.24F
KREMMLING      NOT AVBL
LEADVILLE      FAIR      74   9   8 NW12G18   30.41F
MONARCH PASS   CLOUDY    59  25  27 W20G25    30.71F
SALIDA         FAIR      80  31  16 SE12G21   30.29F
SUNLIGHT       FAIR      68  25  19 SW3       30.55F
WILKERSON PASS PTSUNNY   55  37  50 S10G23    30.59S
$$

COZ069>075-270100-
...SAN LUIS VALLEY/SANGRE DE CRISTO MOUNTAINS...

CITY           SKY/WX    TMP DP  RH WIND       PRES   REMARKS
ALAMOSA        PTSUNNY   72  37  28 N13       30.31R
DEL NORTE      RAIN      64  48  57 E9        30.33R
LA VETA PASS   TSTM      46  39  76 SE18      30.65R
SAGUACHE       FAIR      81  30  16 S9        30.26F
$$

COZ035-036-038>040-270100-
...NORTHERN COLORADO FRONT RANGE...

CITY           SKY/WX    TMP DP  RH WIND       PRES   REMARKS
DENVER INTL AP FAIR      87  38  17 NE14      30.11F
DMNS CITY PARK   N/A     85  37  18 NE13G21   30.10F
AURORA         MOSUNNY   87  38  18 E13       30.13F
FRONT RANGE AP FAIR      88  37  16 NE12G17   30.13F
ERIE MUNI ARPT FAIR      86  38  17 E3        30.09F
BOULDER MUN AP FAIR      84  41  21 CALM      30.11F
CENTENNIAL     FAIR      84  34  16 VRB7      30.14F
BROOMFIELD     FAIR      84  37  18 N5        30.15S
FORT COLLINS   FAIR      87  44  22 S10       30.10F
LONGMONT       FAIR      89  40  17 CALM      30.11F
$$

COZ041-046-047-076>085-087-088-270100-
...PIKES PEAK/PALMER DIVIDE AND SOUTHERN FOOTHILLS...

CITY           SKY/WX    TMP DP  RH WIND       PRES   REMARKS
COLO. SPRINGS  PTSUNNY   77  47  34 S10       30.18F
A. F. ACADEMY  MOSUNNY   75  45  34 SW7       30.20R
SCHRIEVER AFB  PTSUNNY   77  45  32 S10       30.19F
CHEYENNE MTN   PTSUNNY   72  43  35 S10G18    30.18F
ELLICOTT       FAIR     N/A N/A N/A S12       30.17F
FALCON           N/A     77  39  25 SW12G24   30.24F
FORT CARSON    PTSUNNY   77  47  34 S8        30.15F
LIMON          FAIR      81  47  30 SE16      30.14S
MONUMENT HILL  FAIR      79  32  18 E14       30.25F
CANON CITY     LGT RAIN  79  48  34 W14G30    30.12F
WALSENBURG     NOT AVBL
TRINIDAD       FAIR      81  51  35 W8        30.16F
$$

COZ042>045-048>051-090-091-270100-
...NORTHEAST COLORADO...

CITY           SKY/WX    TMP DP  RH WIND       PRES   REMARKS
GREELEY ARPT   FAIR      86  49  27 SE12      30.08F
AKRON          FAIR      80  55  42 E17G30    30.12F
BURLINGTON     FAIR      84  55  36 E14       30.10F
WRAY           FAIR      79  57  47 E15G22    30.10S
YUMA           FAIR      77  55  47 E17       30.11S
STERLING       FAIR      84  55  37 SE17G23   30.07F
HOLYOKE        NOT AVBL
FORT MORGAN    FAIR      86  42  21 E14G20    30.09F
$$

COZ086-089-092>099-270100-
...SOUTHEAST COLORADO...

CITY           SKY/WX    TMP DP  RH WIND       PRES   REMARKS
PUEBLO         FAIR      87  46  24 SE6       30.07F
LA JUNTA       FAIR      88  52  29 SE14      30.04F
LAMAR          FAIR      85  53  33 E13       30.00F
SPRINGFIELD      N/A     75  55  49 S20G30    30.10S
$$




USA.gov is the U.S. government's official web portal to all federal, state and local government web resources and services.